Location: Unspecified
(0.0000°N, 0.0000°E)
Time: 23:11:44
(UTC+00:00)

A-11 Canister half - Pass Details

Date: 14 February 2023
Orbit: 1526 x 1682 km, 47.3° (Epoch: 29 March)

Event Time Altitude Azimuth Distance (km) Brightness Sun altitude
Rises 00:37:35 0° 233° (SW) 4,830 - -75.6°
Reaches altitude 10° 00:40:54 10° 239° (WSW) 3,820 - -75.3°
Maximum altitude 00:50:01 47° 310° (NW) 1,997 - -74.1°
Drops below altitude 10° 00:58:53 10° 21° (NNE) 3,706 - -72.8°
Sets 01:02:05 0° 27° (NNE) 4,675 - -72.3°
